This is the latest recevied weather packets stored in our database for station/object KC1TWD. If no packets are shown the sender has not sent any weather packets the latest 10 day(s).
| Time | Temp. | Humidity | Pressure | Rain* | Wind** | Luminosity | Snow |
|---|---|---|---|---|---|---|---|
| 1777433844 | 7.22° C | 63% | 1019.9 hPa | 0 mm | - | - | - |
| 1777433540 | 7.22° C | 62% | 1019.9 hPa | 0 mm | - | - | - |
| 1777433235 | 7.22° C | 63% | 1020.1 hPa | 0 mm | - | - | - |
| 1777432932 | 7.22° C | 62% | 1020 hPa | 0 mm | - | - | - |
| 1777432632 | 7.22° C | 62% | 1020.2 hPa | 0 mm | - | - | - |
| 1777432329 | 7.22° C | 60% | 1020.1 hPa | 0 mm | - | - | - |
| 1777432028 | 7.22° C | 60% | 1020.5 hPa | 0 mm | - | - | - |
| 1777431725 | 7.22° C | 61% | 1020.4 hPa | 0 mm | - | - | - |
| 1777431421 | 7.22° C | 59% | 1020.7 hPa | 0 mm | - | - | - |
| 1777431117 | 7.22° C | 57% | 1020.8 hPa | 0 mm | - | - | - |
| 1777430812 | 7.78° C | 57% | 1020.6 hPa | 0 mm | - | - | - |
| 1777430509 | 7.78° C | 55% | 1020.7 hPa | 0 mm | - | - | - |
| 1777430204 | 7.78° C | 51% | 1020.7 hPa | 0 mm | - | - | - |
| 1777429900 | 7.78° C | 51% | 1020.9 hPa | 0 mm | - | - | - |
| 1777429597 | 7.78° C | 45% | 1020.7 hPa | 0 mm | - | - | - |
| 1777429293 | 7.78° C | 44% | 1020.8 hPa | 0 mm | - | - | - |
| 1777428988 | 7.78° C | 42% | 1020.7 hPa | 0 mm | - | - | - |
| 1777428685 | 7.78° C | 41% | 1020.8 hPa | 0 mm | - | - | - |
| 1777428381 | 7.78° C | 39% | 1020.6 hPa | 0 mm | - | - | - |
| 1777428076 | 7.78° C | 34% | 1020.7 hPa | 0 mm | - | - | - |
| 1777427772 | 7.78° C | 32% | 1020.5 hPa | 0 mm | - | - | - |
| 1777427470 | 7.78° C | 33% | 1020.5 hPa | 0 mm | - | - | - |
| 1777427165 | 8.33° C | 32% | 1020.3 hPa | 0 mm | - | - | - |
| 1777426863 | 8.33° C | 30% | 1020.6 hPa | 0 mm | - | - | - |
| 1777426560 | 8.33° C | 34% | 1020.6 hPa | 0 mm | - | - | - |
* Rain latest hour (hover to see other rain measurements)
** Current wind speed in m/s (hover to see current wind gust speed)